Time,TemperatureF,DewpointF,PressureIn,WindDirection,WindDirectionDegrees,WindSpeedMPH,WindSpeedGustMPH,Humidity,HourlyPrecipIn,Conditions,Clouds,dailyrainin,SoftwareType,DateUTC
2015-05-28 00:02:00,69.2,66.8,30.25,East,100,0.0,0.0,92,0.00,RA,,0.00,WeatherDisplay:10.37,2015-05-28 04:02:00,
2015-05-28 00:07:00,69.1,66.7,30.25,East,100,0.0,0.0,92,0.00,RA,,0.00,WeatherDisplay:10.37,2015-05-28 04:07:00,
2015-05-28 00:12:00,69.0,66.6,30.25,East,100,0.0,0.0,92,0.00,CLR,,0.00,WeatherDisplay:10.37,2015-05-28 04:12:00,
2015-05-28 00:17:00,69.0,66.6,30.25,East,100,0.0,0.0,92,0.00,CLR,,0.00,WeatherDisplay:10.37,2015-05-28 04:17:00,
2015-05-28 00:22:00,68.9,66.5,30.25,East,100,0.0,0.0,92,0.00,CLR,,0.00,WeatherDisplay:10.37,2015-05-28 04:22:00,
2015-05-28 00:28:00,68.9,66.8,30.25,East,100,0.0,0.0,93,0.00,CLR,,0.00,WeatherDisplay:10.37,2015-05-28 04:28:00,
2015-05-28 00:33:00,68.8,66.7,30.24,East,100,0.0,0.0,93,0.00,CLR,,0.00,WeatherDisplay:10.37,2015-05-28 04:33:00,
2015-05-28 00:38:00,68.8,66.7,30.24,East,100,0.0,0.0,93,0.00,CLR,,0.00,WeatherDisplay:10.37,2015-05-28 04:38:00,
2015-05-28 00:43:00,68.8,66.7,30.24,East,100,0.0,0.0,93,0.00,CLR,,0.00,WeatherDisplay:10.37,2015-05-28 04:43:00,
2015-05-28 00:48:00,68.7,66.6,30.25,East,100,0.0,0.0,93,0.00,CLR,,0.00,WeatherDisplay:10.37,2015-05-28 04:48:00,
2015-05-28 00:53:00,68.6,66.5,30.25,East,100,0.0,0.0,93,0.00,CLR,,0.00,WeatherDisplay:10.37,2015-05-28 04:53:00,
2015-05-28 00:58:00,68.4,66.3,30.25,West,273,3.5,3.5,93,0.00,CLR,,0.00,WeatherDisplay:10.37,2015-05-28 04:58:00,
2015-05-28 01:03:00,68.4,66.3,30.25,SSW,210,10.4,10.4,93,0.00,CLR,,0.00,WeatherDisplay:10.37,2015-05-28 05:03:00,
2015-05-28 01:08:00,68.5,65.4,30.26,WSW,252,4.6,4.6,90,0.00,CLR,,0.00,WeatherDisplay:10.37,2015-05-28 05:08:00,
2015-05-28 01:13:00,68.6,64.9,30.26,WNW,301,3.5,3.5,88,0.00,CLR,,0.00,WeatherDisplay:10.37,2015-05-28 05:13:00,
2015-05-28 01:18:00,68.7,64.7,30.25,East,92,4.0,4.0,87,0.00,CLR,,0.00,WeatherDisplay:10.37,2015-05-28 05:18:00,
2015-05-28 01:23:00,68.6,64.2,30.25,SSW,210,4.6,4.6,86,0.00,CLR,,0.00,WeatherDisplay:10.37,2015-05-28 05:23:00,
2015-05-28 01:28:00,68.5,63.8,30.25,West,272,6.0,6.0,85,0.00,CLR,,0.00,WeatherDisplay:10.37,2015-05-28 05:28:00,
2015-05-28 01:33:00,68.4,63.7,30.25,WSW,238,3.5,3.5,85,0.00,CLR,,0.00,WeatherDisplay:10.37,2015-05-28 05:33:00,
2015-05-28 01:38:00,68.3,63.6,30.25,WSW,240,5.8,5.8,85,0.00,CLR,,0.00,WeatherDisplay:10.37,2015-05-28 05:38:00,
2015-05-28 01:43:00,68.3,63.6,30.25,NW,311,6.0,6.0,85,0.00,CLR,,0.00,WeatherDisplay:10.37,2015-05-28 05:43:00,
2015-05-28 01:48:00,68.3,63.6,30.25,WSW,255,4.6,4.6,85,0.00,CLR,,0.00,WeatherDisplay:10.37,2015-05-28 05:48:00,
2015-05-28 01:53:00,68.1,63.4,30.25,WNW,283,6.9,6.9,85,0.00,CLR,,0.00,WeatherDisplay:10.37,2015-05-28 05:53:00,
2015-05-28 01:58:00,68.0,63.3,30.25,NW,320,3.5,3.5,85,0.00,CLR,,0.00,WeatherDisplay:10.37,2015-05-28 05:58:00,
2015-05-28 02:03:00,67.9,63.2,30.25,WSW,238,3.0,3.0,85,0.00,CLR,,0.00,WeatherDisplay:10.37,2015-05-28 06:03:00,
2015-05-28 02:08:00,67.8,63.1,30.24,WSW,249,3.5,3.5,85,0.00,CLR,,0.00,WeatherDisplay:10.37,2015-05-28 06:08:00,
2015-05-28 02:13:00,67.7,63.4,30.25,West,272,4.6,4.6,86,0.00,CLR,,0.00,WeatherDisplay:10.37,2015-05-28 06:13:00,
2015-05-28 02:18:00,67.6,63.3,30.25,WSW,248,5.8,5.8,86,0.00,CLR,,0.00,WeatherDisplay:10.37,2015-05-28 06:18:00,
2015-05-28 02:23:00,67.5,63.2,30.24,WSW,257,7.0,7.0,86,0.00,CLR,,0.00,WeatherDisplay:10.37,2015-05-28 06:23:00,
2015-05-28 02:28:00,67.5,63.2,30.24,West,275,4.6,4.6,86,0.00,CLR,,0.00,WeatherDisplay:10.37,2015-05-28 06:28:00,
2015-05-28 02:33:00,67.4,63.1,30.24,SSW,197,6.9,6.9,86,0.00,CLR,,0.00,WeatherDisplay:10.37,2015-05-28 06:33:00,
2015-05-28 02:38:00,67.4,63.4,30.24,SE,134,3.5,3.5,87,0.00,CLR,,0.00,WeatherDisplay:10.37,2015-05-28 06:38:00,
2015-05-28 02:43:00,67.3,63.3,30.24,WSW,247,2.3,2.3,87,0.00,CLR,,0.00,WeatherDisplay:10.37,2015-05-28 06:43:00,
2015-05-28 02:48:00,67.2,63.5,30.23,WSW,252,0.0,0.0,88,0.00,CLR,,0.00,WeatherDisplay:10.37,2015-05-28 06:48:00,
2015-05-28 02:53:00,67.1,63.4,30.23,WSW,255,1.2,1.2,88,0.00,CLR,,0.00,WeatherDisplay:10.37,2015-05-28 06:53:00,
2015-05-28 02:58:00,66.8,63.5,30.22,SW,229,1.2,1.2,89,0.00,CLR,,0.00,WeatherDisplay:10.37,2015-05-28 06:58:00,
2015-05-28 03:03:00,66.6,63.6,30.23,SW,229,0.0,0.0,90,0.00,CLR,,0.00,WeatherDisplay:10.37,2015-05-28 07:03:00,
2015-05-28 03:08:00,66.3,63.6,30.23,SW,229,0.0,0.0,91,0.00,CLR,,0.00,WeatherDisplay:10.37,2015-05-28 07:08:00,
2015-05-28 03:13:00,66.1,63.7,30.23,SW,229,0.0,0.0,92,0.02,RA,,0.03,WeatherDisplay:10.37,2015-05-28 07:13:00,
2015-05-28 03:18:00,66.0,63.6,30.22,SW,229,0.0,0.0,92,0.05,RA,,0.05,WeatherDisplay:10.37,2015-05-28 07:18:00,
2015-05-28 03:23:00,65.9,63.8,30.22,SW,229,0.0,0.0,93,0.06,RA,,0.07,WeatherDisplay:10.37,2015-05-28 07:23:00,
2015-05-28 03:28:00,65.8,64.0,30.21,SW,228,0.0,0.0,94,0.08,RA,,0.08,WeatherDisplay:10.37,2015-05-28 07:28:00,
2015-05-28 03:33:00,65.6,63.8,30.21,SW,228,0.0,0.0,94,0.09,RA,,0.09,WeatherDisplay:10.37,2015-05-28 07:33:00,
2015-05-28 03:38:00,65.5,63.7,30.20,SW,228,1.2,1.2,94,0.10,RA,,0.10,WeatherDisplay:10.37,2015-05-28 07:38:00,
2015-05-28 03:43:00,65.3,63.8,30.20,SW,228,1.2,1.2,95,0.11,RA,,0.11,WeatherDisplay:10.37,2015-05-28 07:43:00,
2015-05-28 03:48:00,65.1,63.6,30.20,SW,228,0.0,0.0,95,0.12,RA,,0.12,WeatherDisplay:10.37,2015-05-28 07:48:00,
2015-05-28 03:53:00,65.1,63.6,30.20,SW,228,0.0,0.0,95,0.12,RA,,0.12,WeatherDisplay:10.37,2015-05-28 07:53:00,
2015-05-28 03:58:00,65.1,63.9,30.19,SW,228,0.0,0.0,96,0.12,CLR,,0.12,WeatherDisplay:10.37,2015-05-28 07:58:00,
2015-05-28 04:03:00,65.1,63.9,30.19,SW,228,0.0,0.0,96,0.12,CLR,,0.12,WeatherDisplay:10.37,2015-05-28 08:03:00,
2015-05-28 04:08:00,65.0,63.8,30.19,SW,228,0.0,0.0,96,0.12,CLR,,0.12,WeatherDisplay:10.37,2015-05-28 08:08:00,
2015-05-28 04:13:00,64.9,63.7,30.19,SW,228,0.0,0.0,96,0.10,CLR,,0.12,WeatherDisplay:10.37,2015-05-28 08:13:00,
2015-05-28 04:18:00,64.9,63.7,30.18,SW,228,0.0,0.0,96,0.07,CLR,,0.12,WeatherDisplay:10.37,2015-05-28 08:18:00,
2015-05-28 04:23:00,64.9,63.7,30.18,SW,228,0.0,0.0,96,0.06,CLR,,0.13,WeatherDisplay:10.37,2015-05-28 08:23:00,
2015-05-28 04:28:00,64.8,63.6,30.18,SW,228,0.0,0.0,96,0.05,RA,,0.13,WeatherDisplay:10.37,2015-05-28 08:28:00,
2015-05-28 04:33:00,64.7,63.5,30.18,SW,228,0.0,0.0,96,0.04,RA,,0.13,WeatherDisplay:10.37,2015-05-28 08:33:00,
2015-05-28 04:38:00,64.7,63.5,30.19,SW,228,0.0,0.0,96,0.03,CLR,,0.13,WeatherDisplay:10.37,2015-05-28 08:38:00,
2015-05-28 04:43:00,64.6,63.4,30.18,SW,228,0.0,0.0,96,0.02,CLR,,0.13,WeatherDisplay:10.37,2015-05-28 08:43:00,
2015-05-28 04:48:00,64.6,63.7,30.18,SW,228,0.0,0.0,97,0.01,CLR,,0.13,WeatherDisplay:10.37,2015-05-28 08:48:00,
2015-05-28 04:53:00,64.5,63.6,30.18,SW,228,0.0,0.0,97,0.01,CLR,,0.13,WeatherDisplay:10.37,2015-05-28 08:53:00,
2015-05-28 04:58:00,64.5,63.6,30.18,SW,228,0.0,0.0,97,0.01,CLR,,0.13,WeatherDisplay:10.37,2015-05-28 08:58:00,
2015-05-28 05:08:00,64.5,63.6,30.18,SW,228,0.0,0.0,97,0.01,CLR,,0.13,WeatherDisplay:10.37,2015-05-28 09:08:00,
2015-05-28 05:13:00,64.4,63.5,30.18,SW,228,0.0,0.0,97,0.01,CLR,,0.13,WeatherDisplay:10.37,2015-05-28 09:13:00,
2015-05-28 05:18:00,64.5,63.6,30.19,SW,228,0.0,0.0,97,0.01,CLR,,0.13,WeatherDisplay:10.37,2015-05-28 09:18:00,
2015-05-28 05:23:00,64.4,63.5,30.19,SW,228,0.0,0.0,97,0.01,CLR,,0.13,WeatherDisplay:10.37,2015-05-28 09:23:00,
2015-05-28 05:28:00,64.5,63.6,30.20,SW,228,0.0,0.0,97,0.00,CLR,,0.13,WeatherDisplay:10.37,2015-05-28 09:28:00,
2015-05-28 05:33:00,64.5,63.6,30.20,SW,228,0.0,0.0,97,0.00,CLR,,0.13,WeatherDisplay:10.37,2015-05-28 09:33:00,
2015-05-28 05:39:00,64.4,63.5,30.20,SW,228,0.0,0.0,97,0.00,CLR,,0.13,WeatherDisplay:10.37,2015-05-28 09:39:00,
2015-05-28 05:44:00,64.3,63.4,30.20,SW,228,0.0,0.0,97,0.00,CLR,,0.13,WeatherDisplay:10.37,2015-05-28 09:44:00,
2015-05-28 05:49:00,64.3,63.4,30.20,SW,228,0.0,0.0,97,0.00,CLR,,0.13,WeatherDisplay:10.37,2015-05-28 09:49:00,
2015-05-28 05:54:00,64.3,63.4,30.20,SW,228,0.0,0.0,97,0.00,CLR,,0.13,WeatherDisplay:10.37,2015-05-28 09:54:00,
2015-05-28 05:59:00,64.3,63.4,30.21,SW,228,0.0,0.0,97,0.00,CLR,,0.13,WeatherDisplay:10.37,2015-05-28 09:59:00,
2015-05-28 06:04:00,64.2,63.3,30.21,SW,228,0.0,0.0,97,0.00,CLR,,0.13,WeatherDisplay:10.37,2015-05-28 10:04:00,
2015-05-28 06:09:00,64.2,63.3,30.21,SW,228,0.0,0.0,97,0.00,CLR,,0.13,WeatherDisplay:10.37,2015-05-28 10:09:00,
2015-05-28 06:14:00,64.2,63.3,30.22,SW,228,0.0,0.0,97,0.00,CLR,,0.13,WeatherDisplay:10.37,2015-05-28 10:14:00,
2015-05-28 06:19:00,64.3,63.4,30.22,SW,228,0.0,0.0,97,0.00,CLR,,0.13,WeatherDisplay:10.37,2015-05-28 10:19:00,
2015-05-28 06:24:00,64.3,63.4,30.22,SW,228,0.0,0.0,97,0.00,CLR,,0.13,WeatherDisplay:10.37,2015-05-28 10:24:00,
2015-05-28 06:29:00,64.3,63.4,30.22,SW,228,0.0,0.0,97,0.00,CLR,,0.13,WeatherDisplay:10.37,2015-05-28 10:29:00,
2015-05-28 06:34:00,64.3,63.4,30.22,SW,228,0.0,0.0,97,0.00,CLR,,0.13,WeatherDisplay:10.37,2015-05-28 10:34:00,
2015-05-28 06:39:00,64.2,63.3,30.22,SW,228,0.0,0.0,97,0.00,CLR,,0.13,WeatherDisplay:10.37,2015-05-28 10:39:00,
2015-05-28 06:44:00,64.2,63.3,30.22,SW,228,0.0,0.0,97,0.00,CLR,,0.13,WeatherDisplay:10.37,2015-05-28 10:44:00,
2015-05-28 06:49:00,64.2,63.3,30.22,SW,228,0.0,0.0,97,0.00,CLR,,0.13,WeatherDisplay:10.37,2015-05-28 10:49:00,
2015-05-28 06:54:00,64.2,63.3,30.23,SW,228,0.0,0.0,97,0.00,CLR,,0.13,WeatherDisplay:10.37,2015-05-28 10:54:00,
2015-05-28 06:59:00,64.2,63.3,30.23,SW,228,0.0,0.0,97,0.00,CLR,,0.13,WeatherDisplay:10.37,2015-05-28 10:59:00,
2015-05-28 07:04:00,64.3,63.4,30.23,SW,228,0.0,0.0,97,0.00,CLR,,0.13,WeatherDisplay:10.37,2015-05-28 11:04:00,
2015-05-28 07:09:00,64.4,63.8,30.23,SW,228,0.0,0.0,98,0.00,CLR,,0.13,WeatherDisplay:10.37,2015-05-28 11:09:00,
2015-05-28 07:14:00,64.5,63.9,30.23,SW,228,0.0,0.0,98,0.00,CLR,,0.13,WeatherDisplay:10.37,2015-05-28 11:14:00,
2015-05-28 07:19:00,64.5,63.9,30.23,SW,228,0.0,0.0,98,0.00,CLR,,0.13,WeatherDisplay:10.37,2015-05-28 11:19:00,
2015-05-28 07:24:00,64.5,63.9,30.23,SW,228,0.0,0.0,98,0.00,CLR,,0.13,WeatherDisplay:10.37,2015-05-28 11:24:00,
2015-05-28 07:29:00,64.7,64.1,30.23,SW,228,0.0,0.0,98,0.00,CLR,,0.13,WeatherDisplay:10.37,2015-05-28 11:29:00,
2015-05-28 07:34:00,64.8,64.2,30.23,SW,228,0.0,0.0,98,0.00,CLR,,0.13,WeatherDisplay:10.37,2015-05-28 11:34:00,
2015-05-28 07:39:00,64.9,64.3,30.23,SW,228,0.0,0.0,98,0.00,CLR,,0.13,WeatherDisplay:10.37,2015-05-28 11:39:00,
2015-05-28 07:44:00,64.9,64.3,30.23,SW,228,0.0,0.0,98,0.00,CLR,,0.13,WeatherDisplay:10.37,2015-05-28 11:44:00,
2015-05-28 07:49:00,64.9,64.3,30.24,SW,228,0.0,0.0,98,0.00,CLR,,0.13,WeatherDisplay:10.37,2015-05-28 11:49:00,
2015-05-28 07:54:00,65.1,64.5,30.24,SW,228,0.0,0.0,98,0.00,CLR,,0.13,WeatherDisplay:10.37,2015-05-28 11:54:00,
2015-05-28 07:59:00,65.4,64.8,30.24,SW,228,0.0,0.0,98,0.00,CLR,,0.13,WeatherDisplay:10.37,2015-05-28 11:59:00,
2015-05-28 08:04:00,65.6,65.0,30.24,SW,228,0.0,0.0,98,0.00,CLR,,0.13,WeatherDisplay:10.37,2015-05-28 12:04:00,
2015-05-28 08:09:00,65.7,65.1,30.24,SW,228,0.0,0.0,98,0.00,CLR,,0.13,WeatherDisplay:10.37,2015-05-28 12:09:00,
2015-05-28 08:14:00,65.9,65.3,30.24,SW,228,0.0,0.0,98,0.00,CLR,,0.13,WeatherDisplay:10.37,2015-05-28 12:14:00,
2015-05-28 08:19:00,66.0,65.4,30.25,SW,228,0.0,0.0,98,0.00,CLR,,0.13,WeatherDisplay:10.37,2015-05-28 12:19:00,
2015-05-28 08:24:00,66.3,65.7,30.25,SW,228,0.0,0.0,98,0.00,CLR,,0.13,WeatherDisplay:10.37,2015-05-28 12:24:00,
2015-05-28 08:29:00,66.4,65.8,30.25,SW,228,0.0,0.0,98,0.00,CLR,,0.13,WeatherDisplay:10.37,2015-05-28 12:29:00,
2015-05-28 08:34:00,66.6,66.0,30.25,SW,228,0.0,0.0,98,0.00,CLR,,0.13,WeatherDisplay:10.37,2015-05-28 12:34:00,
2015-05-28 08:39:00,66.7,66.1,30.25,SW,228,0.0,0.0,98,0.00,CLR,,0.13,WeatherDisplay:10.37,2015-05-28 12:39:00,
2015-05-28 08:44:00,66.9,66.0,30.25,SW,228,0.0,0.0,97,0.00,CLR,,0.13,WeatherDisplay:10.37,2015-05-28 12:44:00,
2015-05-28 08:49:00,67.1,66.2,30.25,SW,228,0.0,0.0,97,0.00,CLR,,0.13,WeatherDisplay:10.37,2015-05-28 12:49:00,
2015-05-28 08:54:00,67.2,66.3,30.25,SW,228,0.0,0.0,97,0.00,CLR,,0.13,WeatherDisplay:10.37,2015-05-28 12:54:00,
2015-05-28 08:59:00,67.3,66.1,30.25,SW,228,0.0,0.0,96,0.00,CLR,,0.13,WeatherDisplay:10.37,2015-05-28 12:59:00,
2015-05-28 09:04:00,67.5,66.3,30.25,SW,228,0.0,0.0,96,0.00,CLR,,0.13,WeatherDisplay:10.37,2015-05-28 13:04:00,
2015-05-28 09:09:00,67.8,66.6,30.25,SW,228,0.0,0.0,96,0.00,CLR,,0.13,WeatherDisplay:10.37,2015-05-28 13:09:00,
2015-05-28 09:14:00,68.0,66.5,30.25,SW,228,0.0,0.0,95,0.00,CLR,,0.13,WeatherDisplay:10.37,2015-05-28 13:14:00,
2015-05-28 09:19:00,68.3,66.2,30.25,SW,228,0.0,0.0,93,0.00,CLR,,0.13,WeatherDisplay:10.37,2015-05-28 13:19:00,
2015-05-28 09:24:00,68.6,66.2,30.26,SW,228,0.0,0.0,92,0.00,CLR,,0.13,WeatherDisplay:10.37,2015-05-28 13:24:00,
2015-05-28 09:29:00,68.7,66.3,30.25,SW,227,0.0,0.0,92,0.00,CLR,,0.13,WeatherDisplay:10.37,2015-05-28 13:29:00,
2015-05-28 09:34:00,68.9,66.5,30.26,SW,227,0.0,0.0,92,0.00,CLR,,0.13,WeatherDisplay:10.37,2015-05-28 13:34:00,
2015-05-28 09:39:00,69.1,66.4,30.26,SW,219,0.0,0.0,91,0.00,CLR,,0.13,WeatherDisplay:10.37,2015-05-28 13:39:00,
2015-05-28 09:44:00,69.3,66.6,30.25,SW,219,0.0,0.0,91,0.00,CLR,,0.13,WeatherDisplay:10.37,2015-05-28 13:44:00,
2015-05-28 09:49:00,69.5,66.8,30.26,SW,219,0.0,0.0,91,0.00,CLR,,0.13,WeatherDisplay:10.37,2015-05-28 13:49:00,
2015-05-28 09:54:00,69.7,67.0,30.25,SW,219,0.0,0.0,91,0.00,CLR,,0.13,WeatherDisplay:10.37,2015-05-28 13:54:00,
2015-05-28 09:59:00,70.1,66.7,30.25,ESE,117,0.0,0.0,89,0.00,CLR,,0.13,WeatherDisplay:10.37,2015-05-28 13:59:00,
2015-05-28 10:04:00,70.5,67.1,30.25,West,275,0.0,0.0,89,0.00,CLR,,0.13,WeatherDisplay:10.37,2015-05-28 14:04:00,
2015-05-28 10:09:00,71.1,67.7,30.25,West,275,0.0,0.0,89,0.00,CLR,,0.13,WeatherDisplay:10.37,2015-05-28 14:09:00,
2015-05-28 10:14:00,71.6,67.9,30.25,NNE,18,1.2,1.2,88,0.00,CLR,,0.13,WeatherDisplay:10.37,2015-05-28 14:14:00,
2015-05-28 10:19:00,72.1,68.7,30.25,East,87,0.0,0.1,89,0.00,CLR,,0.13,WeatherDisplay:10.37,2015-05-28 14:19:00,
2015-05-28 10:24:00,72.4,67.6,30.25,East,88,1.0,1.0,85,0.00,CLR,,0.13,WeatherDisplay:10.37,2015-05-28 14:24:00,
2015-05-28 10:29:00,72.6,68.2,30.25,East,88,0.0,0.0,86,0.00,CLR,,0.13,WeatherDisplay:10.37,2015-05-28 14:29:00,
2015-05-28 10:34:00,73.2,68.8,30.25,East,88,0.0,0.0,86,0.00,CLR,,0.13,WeatherDisplay:10.37,2015-05-28 14:34:00,
2015-05-28 10:39:00,73.5,69.1,30.25,ESE,105,0.0,0.7,86,0.00,CLR,,0.13,WeatherDisplay:10.37,2015-05-28 14:39:00,
2015-05-28 10:44:00,73.3,68.5,30.25,ESE,104,1.2,0.0,85,0.00,CLR,,0.13,WeatherDisplay:10.37,2015-05-28 14:44:00,
2015-05-28 10:49:00,73.7,68.9,30.25,ESE,104,0.0,0.0,85,0.00,CLR,,0.13,WeatherDisplay:10.37,2015-05-28 14:49:00,
2015-05-28 10:54:00,74.1,69.0,30.25,ESE,105,0.0,0.0,84,0.00,CLR,,0.13,WeatherDisplay:10.37,2015-05-28 14:54:00,
2015-05-28 10:59:00,74.2,68.7,30.25,ESE,105,1.2,1.2,83,0.00,CLR,,0.13,WeatherDisplay:10.37,2015-05-28 14:59:00,
2015-05-28 11:04:00,74.7,69.2,30.25,ESE,108,1.0,1.0,83,0.00,CLR,,0.13,WeatherDisplay:10.37,2015-05-28 15:04:00,
2015-05-28 11:09:00,74.8,68.6,30.25,ESE,108,2.3,2.3,81,0.00,CLR,,0.13,WeatherDisplay:10.37,2015-05-28 15:09:00,
2015-05-28 11:14:00,75.0,69.1,30.25,ESE,107,1.2,1.2,82,0.00,CLR,,0.13,WeatherDisplay:10.37,2015-05-28 15:14:00,
2015-05-28 11:19:00,75.7,69.1,30.25,ESE,108,0.0,0.0,80,0.00,CLR,,0.13,WeatherDisplay:10.37,2015-05-28 15:19:00,
2015-05-28 11:24:00,76.3,69.7,30.25,NE,40,3.5,0.0,80,0.00,CLR,,0.13,WeatherDisplay:10.37,2015-05-28 15:24:00,
2015-05-28 11:29:00,76.7,69.3,30.25,ESE,122,2.3,2.3,78,0.00,CLR,,0.13,WeatherDisplay:10.37,2015-05-28 15:29:00,
2015-05-28 11:34:00,76.4,69.0,30.25,ESE,106,1.2,1.2,78,0.00,CLR,,0.13,WeatherDisplay:10.37,2015-05-28 15:34:00,
2015-05-28 11:40:00,76.8,68.3,30.25,SW,217,1.2,0.0,75,0.00,CLR,,0.13,WeatherDisplay:10.37,2015-05-28 15:40:00,
2015-05-28 11:45:00,77.4,68.9,30.25,SSW,207,2.3,0.0,75,0.00,CLR,,0.13,WeatherDisplay:10.37,2015-05-28 15:45:00,
2015-05-28 11:50:00,78.1,68.7,30.25,East,81,2.3,2.3,73,0.00,CLR,,0.13,WeatherDisplay:10.37,2015-05-28 15:50:00,
2015-05-28 11:55:00,78.5,69.1,30.25,East,81,1.0,0.0,73,0.00,CLR,,0.13,WeatherDisplay:10.37,2015-05-28 15:55:00,
2015-05-28 12:00:00,78.1,68.3,30.25,ESE,103,1.2,1.2,72,0.00,CLR,,0.13,WeatherDisplay:10.37,2015-05-28 16:00:00,
2015-05-28 12:05:00,77.9,68.5,30.25,ESE,103,0.0,0.0,73,0.00,CLR,,0.13,WeatherDisplay:10.37,2015-05-28 16:05:00,
2015-05-28 12:10:00,78.0,68.6,30.25,ESE,103,0.0,0.0,73,0.00,CLR,,0.13,WeatherDisplay:10.37,2015-05-28 16:10:00,
2015-05-28 12:15:00,78.0,69.0,30.25,ESE,103,0.0,0.0,74,0.00,CLR,,0.13,WeatherDisplay:10.37,2015-05-28 16:15:00,
2015-05-28 12:20:00,78.1,68.7,30.25,ESE,103,0.0,0.0,73,0.00,CLR,,0.13,WeatherDisplay:10.37,2015-05-28 16:20:00,
2015-05-28 12:25:00,78.2,69.2,30.25,ESE,113,0.0,0.0,74,0.00,CLR,,0.13,WeatherDisplay:10.37,2015-05-28 16:25:00,
2015-05-28 12:30:00,78.3,67.7,30.25,SE,142,0.0,0.0,70,0.00,CLR,,0.13,WeatherDisplay:10.37,2015-05-28 16:30:00,
2015-05-28 12:35:00,78.1,68.3,30.25,SE,142,0.0,0.0,72,0.00,CLR,,0.13,WeatherDisplay:10.37,2015-05-28 16:35:00,
2015-05-28 12:40:00,78.2,68.8,30.24,West,265,1.2,0.0,73,0.00,CLR,,0.13,WeatherDisplay:10.37,2015-05-28 16:40:00,
2015-05-28 12:45:00,78.3,68.5,30.24,North,6,1.2,0.0,72,0.00,CLR,,0.13,WeatherDisplay:10.37,2015-05-28 16:45:00,
2015-05-28 12:50:00,78.4,67.8,30.24,North,7,0.0,0.0,70,0.00,CLR,,0.13,WeatherDisplay:10.37,2015-05-28 16:50:00,
2015-05-28 12:55:00,78.5,67.9,30.24,NE,56,0.0,0.0,70,0.00,CLR,,0.13,WeatherDisplay:10.37,2015-05-28 16:55:00,
2015-05-28 13:00:00,79.0,68.0,30.24,ENE,59,1.0,0.0,69,0.00,CLR,,0.13,WeatherDisplay:10.37,2015-05-28 17:00:00,
2015-05-28 13:05:00,79.6,67.7,30.24,ENE,59,0.0,0.0,67,0.00,CLR,,0.13,WeatherDisplay:10.37,2015-05-28 17:05:00,
2015-05-28 13:10:00,81.2,70.1,30.24,SW,214,1.2,1.2,69,0.00,CLR,,0.13,WeatherDisplay:10.37,2015-05-28 17:10:00,
2015-05-28 13:15:00,81.4,68.5,30.23,WSW,241,1.2,1.2,65,0.00,CLR,,0.13,WeatherDisplay:10.37,2015-05-28 17:15:00,
2015-05-28 13:20:00,80.8,68.8,30.23,NE,49,1.2,1.2,67,0.00,CLR,,0.13,WeatherDisplay:10.37,2015-05-28 17:20:00,
2015-05-28 13:25:00,80.2,67.4,30.23,East,79,1.0,0.0,65,0.00,CLR,,0.13,WeatherDisplay:10.37,2015-05-28 17:25:00,
2015-05-28 13:30:00,79.9,68.0,30.23,East,101,0.0,0.0,67,0.00,CLR,,0.13,WeatherDisplay:10.37,2015-05-28 17:30:00,
2015-05-28 13:35:00,79.9,68.4,30.23,East,101,0.0,0.0,68,0.00,CLR,,0.13,WeatherDisplay:10.37,2015-05-28 17:35:00,
2015-05-28 13:40:00,79.6,68.5,30.22,East,101,0.0,0.0,69,0.00,CLR,,0.13,WeatherDisplay:10.37,2015-05-28 17:40:00,
2015-05-28 13:45:00,79.5,69.7,30.22,East,101,0.0,0.0,72,0.00,CLR,,0.13,WeatherDisplay:10.37,2015-05-28 17:45:00,
2015-05-28 13:50:00,79.0,69.2,30.22,East,101,0.0,0.0,72,0.00,CLR,,0.13,WeatherDisplay:10.37,2015-05-28 17:50:00,
2015-05-28 13:55:00,78.9,69.9,30.21,ESE,102,0.0,0.0,74,0.00,CLR,,0.13,WeatherDisplay:10.37,2015-05-28 17:55:00,
2015-05-28 14:00:00,79.6,70.2,30.21,East,88,1.2,1.2,73,0.00,CLR,,0.13,WeatherDisplay:10.37,2015-05-28 18:00:00,
2015-05-28 14:05:00,79.9,68.8,30.22,East,94,1.2,0.0,69,0.00,CLR,,0.13,WeatherDisplay:10.37,2015-05-28 18:05:00,
2015-05-28 14:10:00,80.2,69.5,30.22,East,94,0.0,0.0,70,0.00,CLR,,0.13,WeatherDisplay:10.37,2015-05-28 18:10:00,
2015-05-28 14:15:00,80.2,69.1,30.21,East,94,0.0,0.0,69,0.00,CLR,,0.13,WeatherDisplay:10.37,2015-05-28 18:15:00,
2015-05-28 14:20:00,80.7,70.0,30.21,East,81,0.0,0.0,70,0.00,CLR,,0.13,WeatherDisplay:10.37,2015-05-28 18:20:00,
2015-05-28 14:25:00,80.6,69.9,30.20,East,82,0.0,0.0,70,0.00,CLR,,0.13,WeatherDisplay:10.37,2015-05-28 18:25:00,
2015-05-28 14:30:00,81.2,70.9,30.20,SE,141,0.0,0.0,71,0.00,CLR,,0.13,WeatherDisplay:10.37,2015-05-28 18:30:00,
2015-05-28 14:35:00,81.0,69.4,30.20,North,352,3.5,3.5,68,0.00,CLR,,0.13,WeatherDisplay:10.37,2015-05-28 18:35:00,
2015-05-28 14:40:00,80.9,70.2,30.20,NNE,15,1.2,1.2,70,0.00,CLR,,0.13,WeatherDisplay:10.37,2015-05-28 18:40:00,
2015-05-28 14:45:00,80.8,70.1,30.19,West,262,1.0,1.0,70,0.00,CLR,,0.13,WeatherDisplay:10.37,2015-05-28 18:45:00,
2015-05-28 14:50:00,80.8,68.4,30.19,SSW,208,1.2,1.2,66,0.00,CLR,,0.13,WeatherDisplay:10.37,2015-05-28 18:50:00,
2015-05-28 14:55:00,80.4,68.4,30.19,ENE,60,1.2,0.0,67,0.00,CLR,,0.13,WeatherDisplay:10.37,2015-05-28 18:55:00,
2015-05-28 15:00:00,80.4,68.0,30.19,ENE,61,1.2,1.2,66,0.00,CLR,,0.13,WeatherDisplay:10.37,2015-05-28 19:00:00,
2015-05-28 16:43:00,73.0,66.8,30.20,ESE,106,6.9,7.0,81,0.00,RA,,0.13,WeatherDisplay:10.37,2015-05-28 20:43:00,
2015-05-28 16:48:00,72.5,67.0,30.21,SW,218,2.3,2.3,83,0.00,RA,,0.13,WeatherDisplay:10.37,2015-05-28 20:48:00,
2015-05-28 16:53:00,72.1,66.6,30.22,SW,217,1.2,0.0,83,0.00,CLR,,0.13,WeatherDisplay:10.37,2015-05-28 20:53:00,
2015-05-28 16:58:00,72.2,66.7,30.22,SW,217,1.2,0.0,83,0.00,CLR,,0.13,WeatherDisplay:10.37,2015-05-28 20:58:00,
2015-05-28 17:03:00,72.0,66.9,30.22,ESE,115,1.2,1.2,84,0.00,CLR,,0.13,WeatherDisplay:10.37,2015-05-28 21:03:00,
2015-05-28 17:08:00,72.1,67.0,30.22,ESE,113,1.2,0.0,84,0.00,CLR,,0.13,WeatherDisplay:10.37,2015-05-28 21:08:00,
2015-05-28 17:13:00,71.8,66.7,30.22,ESE,115,2.3,0.0,84,0.00,CLR,,0.13,WeatherDisplay:10.37,2015-05-28 21:13:00,
2015-05-28 17:18:00,71.1,66.7,30.22,ESE,102,3.5,0.0,86,0.00,CLR,,0.13,WeatherDisplay:10.37,2015-05-28 21:18:00,
2015-05-28 17:23:00,70.6,66.5,30.22,East,81,1.2,1.4,87,0.00,CLR,,0.13,WeatherDisplay:10.37,2015-05-28 21:23:00,
2015-05-28 17:28:00,70.1,66.4,30.22,East,84,3.5,3.5,88,0.00,CLR,,0.13,WeatherDisplay:10.37,2015-05-28 21:28:00,